Ontario, OR

9:05 PM MDT on July 22, 2017 (GMT -0600)
Ontario Municipal

Weather History for KONO - October, 2011

Change the Weather History Date:

Wednesday, October 19, 2011

  Actual Average Record
Temperature  
Mean Temperature 51 °F 49 °F  
Max Temperature 64 °F 65 °F 82 °F (2003)
Min Temperature 37 °F 33 °F 18 °F (1976)
Degree Days  
Heating Degree Days 14 16  
Month to date heating degree days 197 231  
Since 1 July heating degree days 214 365  
Cooling Degree Days 0 0  
Month to date cooling degree days 11 0  
Year to date cooling degree days 841 851  
Moisture  
Dew Point 39 °F    
Average Humidity 68    
Maximum Humidity 92    
Minimum Humidity 43    
Precipitation  
Precipitation 0.00 in 0.02 in 0.62 in (1979)
Month to date precipitation 1.14 0.31  
Year to date precipitation 8.34 6.96  
Sea Level Pressure  
Sea Level Pressure 30.07 in    
Wind  
Wind Speed 1 mph (WSW)    
Max Wind Speed 7 mph    
Max Gust Speed 10 mph    
Visibility 9 miles    
Events      
T = Trace of Precipitation, MM = Missing Value Source: NWS Daily Summary

Daily Weather History Graph

Daily Weather History Graph

Search for Another Location

Airport or City:

Trip Planner

Search our weather history database for the weather conditions in past years. The results will help you decide how hot, cold, wet, or windy it might be!

Date:

Astronomy

Oct. 19, 2011 Rise Set
Actual Time 8:07 AM MDT 6:57 PM MDT
Civil Twilight 7:38 AM MDT 7:27 PM MDT
Nautical Twilight 7:04 AM MDT 8:00 PM MDT
Astronomical Twilight 6:31 AM MDT 8:33 PM MDT
Moon No Moon Rise 2:46 PM MDT (10/19)
Length of Visible Light 11h 48m
Length of Day
10h 50m
Waning Gibbous, 54% of the Moon is Illuminated
Oct 19
Waning Gibbous
Oct 19
Last Quarter
Oct 26
New
Nov 2
First Quarter
Nov 10
Full

Hourly Weather History & Observations

Time (MDT) Temp. Windchill Dew Point Humidity Pressure Visibility Wind Dir Wind Speed Gust Speed Precip Events Conditions
12:53 AM 42.1 °F 40.2 °F 39.0 °F 89% 30.14 in 10.0 mi West 3.5 mph - N/A   Clear
1:53 AM 41.0 °F 39.0 °F 37.9 °F 89% 30.13 in 8.0 mi WSW 3.5 mph - N/A   Clear
2:53 AM 39.0 °F 34.8 °F 37.0 °F 93% 30.12 in 7.0 mi WSW 5.8 mph - N/A   Clear
3:53 AM 39.9 °F 35.8 °F 37.0 °F 89% 30.10 in 9.0 mi WSW 5.8 mph - N/A   Clear
4:53 AM 37.9 °F - 36.0 °F 93% 30.07 in 7.0 mi Calm Calm - N/A   Clear
5:53 AM 37.9 °F - 36.0 °F 93% 30.07 in 7.0 mi Calm Calm - N/A   Clear
6:53 AM 39.0 °F - 36.0 °F 89% 30.07 in 8.0 mi Calm Calm - N/A   Clear
7:53 AM 39.0 °F - 37.0 °F 93% 30.08 in 7.0 mi Calm Calm - N/A   Clear
8:53 AM 39.0 °F 36.8 °F 37.0 °F 93% 30.10 in 5.0 mi SW 3.5 mph - N/A   Clear
10:53 AM 45.0 °F - 41.0 °F 86% 30.09 in 10.0 mi Calm Calm - N/A   Clear
11:53 AM 51.1 °F - 42.1 °F 71% 30.08 in 10.0 mi Calm Calm - N/A   Clear
12:53 PM 55.0 °F - 41.0 °F 59% 30.07 in 10.0 mi Calm Calm - N/A   Clear
1:53 PM 59.0 °F - 42.1 °F 53% 30.05 in 10.0 mi Variable 3.5 mph - N/A   Clear
2:53 PM 60.1 °F - 39.9 °F 47% 30.04 in 6.0 mi WSW 3.5 mph - N/A   Haze
3:53 PM 63.0 °F - 39.9 °F 43% 30.02 in 10.0 mi Calm Calm - N/A   Clear
4:53 PM 63.0 °F - 39.0 °F 41% 30.03 in 10.0 mi Calm Calm - N/A   Clear
5:53 PM 63.0 °F - 39.0 °F 41% 30.03 in 10.0 mi Calm Calm - N/A   Clear
6:53 PM 57.9 °F - 44.1 °F 60% 30.03 in 10.0 mi Calm Calm - N/A   Partly Cloudy
8:53 PM 46.9 °F - 42.1 °F 83% 30.06 in 10.0 mi Calm Calm - N/A   Clear
10:53 PM 45.0 °F - 41.0 °F 86% 30.08 in 10.0 mi Calm Calm - N/A   Mostly Cloudy
11:53 PM 43.0 °F - 39.9 °F 89% 30.09 in 10.0 mi Calm Calm - N/A   Clear